Location: Bush Observatory
(40.2653°N, 94.3194°W)
Time: 07:15:06
(UTC-06:00)

Vanguard 1 - Visible Passes

Search period start: 21 January 2017 00:00
Search period end: 31 January 2017 00:00
Orbit: 652 x 3832 km, 34.2° (Epoch: 21 January)

Date Brightness Start Highest point End Pass type
(mag) Time Alt. Az. Time Alt. Az. Time Alt. Az.
21 Jan 11.6 03:45:47 46° ESE 03:45:47 46° ESE 03:50:43 10° E visible
21 Jan 10.8 05:58:30 22° W 06:03:55 47° SSW 06:09:24 10° SE visible
22 Jan 11.2 04:05:35 58° SSE 04:05:35 58° SSE 04:11:40 10° ESE visible
22 Jan 11.0 06:18:18 16° W 06:24:47 40° SSW 06:30:02 10° SE visible
23 Jan 13.1 02:12:41 12° E 02:12:41 12° E 02:13:11 10° E visible
23 Jan 11.0 04:25:24 62° S 04:25:25 62° S 04:32:35 10° ESE visible
23 Jan 11.3 06:38:06 10° W 06:45:32 31° SSW 06:50:28 10° SSE visible
23 Jan 14.0 21:24:44 10° S 21:27:46 13° SSE 21:27:46 13° SSE visible
24 Jan 12.8 02:32:29 19° E 02:32:29 19° E 02:34:14 10° E visible
24 Jan 11.0 04:45:11 55° SW 04:46:30 58° SSW 04:53:25 10° ESE visible
24 Jan 11.6 06:59:48 10° W 07:06:10 23° SW 07:10:37 10° SSE visible
24 Jan 13.9 21:42:22 10° S 21:47:36 17° S 21:47:36 17° S visible
25 Jan 12.5 02:52:16 27° ESE 02:52:16 27° ESE 02:55:16 10° E visible
25 Jan 11.1 05:04:59 44° WSW 05:07:31 52° SSW 05:14:11 10° SE visible
25 Jan 13.8 22:01:13 10° SSW 22:07:31 20° S 22:07:31 20° S visible
26 Jan 12.1 03:12:05 36° ESE 03:12:05 36° ESE 03:16:14 10° ESE visible
26 Jan 11.2 05:24:48 33° WSW 05:28:24 45° SSW 05:34:49 10° SE visible
26 Jan 13.9 20:08:10 10° SSE 20:14:46 13° SE 20:14:46 13° SE visible
26 Jan 13.8 22:20:48 10° SSW 22:27:29 22° SSW 22:27:29 22° SSW visible
27 Jan13.701:19:11E01:19:11E00:40:13WSWvisible
27 Jan 11.8 03:31:54 46° SE 03:31:54 46° SE 03:37:11 10° ESE visible
27 Jan 11.5 05:44:37 25° WSW 05:49:10 36° SSW 05:55:16 10° SSE visible
27 Jan 13.7 20:23:55 10° S 20:34:47 19° SE 20:34:47 19° SE visible
27 Jan 13.8 22:40:55 10° SW 22:47:31 22° SSW 22:47:31 22° SSW visible
28 Jan13.501:39:00E01:39:00E01:00:15WSWvisible
28 Jan 11.5 03:51:44 54° SSE 03:51:44 54° SSE 03:58:04 10° ESE visible
28 Jan 11.7 06:04:27 18° W 06:09:46 28° SW 06:15:27 10° SSE visible
28 Jan 13.5 20:41:55 10° S 20:54:52 25° SSE 20:54:52 25° SSE visible
28 Jan 13.8 23:01:27 10° SW 23:07:36 22° SW 23:07:36 22° SW visible
29 Jan 13.2 01:58:51 13° E 01:58:51 13° E 01:59:30 10° E visible
29 Jan 11.4 04:11:34 55° S 04:11:34 55° S 04:18:50 10° SE visible
29 Jan 12.0 06:24:18 12° W 06:30:14 20° SW 06:35:11 10° S visible
29 Jan 13.4 21:00:56 10° SSW 21:15:00 31° SSE 21:15:00 31° SSE visible
29 Jan 13.8 23:22:20 10° SW 23:27:44 21° SW 23:27:44 21° SW visible
30 Jan 13.0 02:18:43 19° ESE 02:18:43 19° ESE 02:20:32 10° ESE visible
30 Jan 11.5 04:31:27 49° SSW 04:31:33 49° SSW 04:39:30 10° SE visible
30 Jan 12.3 06:46:17 10° WSW 06:50:34 14° SW 06:54:01 10° SSW visible
30 Jan 13.8 19:07:53 10° SSE 19:17:33 14° SE 19:22:25 13° ESE visible
30 Jan 13.3 21:20:36 10° SSW 21:35:10 36° S 21:35:10 36° S visible
